Location: L'Union
(43.6635°N, 1.4699°E)
Time: 04:48:13
(UTC+02:00)

Envisat - Visible Passes

Search period start: 05 October 2022 00:00
Search period end: 15 October 2022 00:00
Orbit: 764 x 765 km, 98.2° (Epoch: 04 October)

Date Brightness Start Highest point End Pass type
(mag) Time Alt. Az. Time Alt. Az. Time Alt. Az.
05 Oct 5.9 04:49:16 10° ENE 04:51:08 12° E 04:52:59 10° ESE visible
05 Oct 2.9 06:25:40 10° NNE 06:30:46 84° WNW 06:35:51 10° SSW visible
06 Oct 4.0 05:48:52 10° NNE 05:53:45 45° E 05:58:35 10° S visible
07 Oct 5.3 05:12:43 10° NE 05:16:32 21° E 05:20:18 10° SE visible
07 Oct 3.2 06:50:54 10° N 06:55:47 49° WNW 07:00:40 10° SW visible
08 Oct 3.1 06:13:48 10° NNE 06:18:54 77° ESE 06:23:59 10° S visible
09 Oct 4.5 05:37:10 10° NNE 05:41:49 35° E 05:46:26 10° SSE visible
09 Oct 3.8 07:16:20 10° N 07:20:43 30° WNW 07:25:05 10° SW visible
10 Oct 5.6 05:01:23 10° NE 05:04:32 16° E 05:07:40 10° SE visible
10 Oct 3.0 06:38:56 10° N 06:43:58 63° WNW 06:48:58 10° SSW visible
11 Oct 3.5 06:01:59 10° NNE 06:07:01 60° E 06:12:01 10° S visible
12 Oct 4.9 05:25:32 10° NE 05:29:53 28° E 05:34:11 10° SSE visible
12 Oct 3.5 07:04:16 10° N 07:08:56 37° WNW 07:13:34 10° SW visible
13 Oct 5.9 04:50:20 10° ENE 04:52:31 13° E 04:54:40 10° ESE visible
13 Oct 2.9 06:27:01 10° N 06:32:07 80° WNW 06:37:11 10° SSW visible
14 Oct 3.9 05:50:12 10° NNE 05:55:06 47° E 05:59:59 10° S visible
14 Oct 4.1 07:29:52 10° NNW 07:33:48 23° WNW 07:37:44 10° WSW visible
